VE3ZEB-1 Weather Reports


Display with metric or nautical units.
time (UTC)temp
F
wind
direction
speed
MPH
gust
MPH
rain 1hr
in
rain 24hr
in
rain mn
in
humidity
%
barometer
mb
20260906231514 73 344 0.0 1.0 0.00 0.00 0.00 97 680.0
20260906230416 73 307 0.0 1.0 0.00 0.00 0.00 96 680.1
20260906225456 73 337 0.0 1.0 0.00 0.00 0.00 96 680.1
20260906224456 74 300 1.0 3.0 0.00 0.00 0.00 95 680.1
20260906223507 74 301 1.0 2.0 0.00 0.00 0.00 95 680.1
20260906222531 75 306 1.0 4.0 0.00 0.00 0.00 92 680.1
20260906221436 75 277 2.0 4.0 0.00 0.00 0.00 91 680.1
20260906220417 76 239 2.0 4.0 0.00 0.00 0.00 90 680.1
20260906215437 76 278 3.0 5.0 0.00 0.00 0.00 89 680.1
20260906214431 76 220 3.0 6.0 0.00 0.00 0.00 90 680.1
20260906213538 76 220 2.0 5.0 0.00 0.00 0.00 87 680.1
20260906212418 75 264 2.0 4.0 0.00 0.00 0.00 88 680.1
20260906211531 75 217 2.0 4.0 0.00 0.00 0.00 87 680.1
20260906210518 76 266 2.0 4.0 0.00 0.00 0.00 87 680.1
20260906205612 77 220 5.0 7.0 0.00 0.00 0.00 85 680.1
20260906204432 76 175 2.0 4.0 0.00 0.00 0.00 85 680.1
20260906203449 76 214 3.0 7.0 0.00 0.00 0.00 85 680.1
20260906202419 76 221 3.0 7.0 0.00 0.00 0.00 86 680.1
20260906201539 75 267 3.0 5.0 0.00 0.00 0.00 88 680.1
20260906200518 75 219 2.0 3.0 0.00 0.00 0.00 90 680.1
20260906195419 75 250 2.0 3.0 0.00 0.00 0.00 88 680.1
20260906194539 75 256 2.0 4.0 0.00 0.00 0.00 88 680.1
20260906193419 76 223 4.0 8.0 0.00 0.00 0.00 87 680.1
20260906192519 76 215 6.0 8.0 0.00 0.00 0.00 86 680.1
20260906191519 75 228 3.0 7.0 0.00 0.00 0.00 88 680.1
20260906190536 75 236 2.0 4.0 0.00 0.00 0.00 88 680.1
20260906185520 75 228 4.0 7.0 0.00 0.00 0.00 89 680.1
20260906184455 75 225 3.0 7.0 0.00 0.00 0.00 87 680.1
20260906183420 75 226 4.0 10.0 0.00 0.00 0.00 89 680.1
20260906182520 75 275 3.0 5.0 0.00 0.00 0.00 92 680.1
20260906181520 75 279 4.0 9.0 0.00 0.00 0.00 91 680.1
20260906180516 74 252 4.0 8.0 0.00 0.00 0.00 88 680.1
20260906175456 74 272 3.0 6.0 0.00 0.00 0.00 87 680.1
20260906174434 75 257 3.0 8.0 0.00 0.00 0.00 89 680.1
20260906173456 75 230 3.0 5.0 0.00 0.00 0.00 88 680.1
20260906172521 75 228 5.0 10.0 0.00 0.00 0.00 86 680.1
20260906171456 76 241 3.0 7.0 0.00 0.00 0.00 87 680.1
20260906170518 77 258 3.0 6.0 0.00 0.00 0.00 92 680.2
20260906165501 76 245 3.0 5.0 0.00 0.00 0.00 91 680.1
20260906164422 76 247 3.0 4.0 0.00 0.00 0.00 90 680.1
20260906163437 77 224 4.0 8.0 0.00 0.00 0.00 90 680.1
20260906162548 78 220 6.0 10.0 0.00 0.00 0.00 89 680.2
20260906161422 78 293 3.0 7.0 0.00 0.00 0.00 91 680.2
20260906160458 77 253 4.0 6.0 0.00 0.00 0.00 93 680.1
20260906155542 76 239 3.0 5.0 0.00 0.00 0.00 92 680.1
20260906154507 76 285 3.0 5.0 0.00 0.00 0.00 93 680.1
20260906153458 76 295 2.0 3.0 0.00 0.00 0.00 98 680.1
20260906152504 75 264 4.0 7.0 0.00 0.00 0.00 98 680.0
20260906151536 73 272 3.0 5.0 0.00 0.00 0.00 99 680.0
20260906150423 73 263 4.0 8.0 0.00 0.00 0.00 99 680.0
20260906145457 72 254 3.0 6.0 0.00 0.00 0.00 99 680.0
20260906144523 71 241 4.0 6.0 0.00 0.00 0.00 99 680.0
20260906143537 69 222 4.0 7.0 0.00 0.00 0.00 99 679.9
20260906142438 68 248 3.0 7.0 0.00 0.00 0.00 99 679.9
20260906141508 0 323 2.0 2.0 0.00 0.00 0.00
20260906140503 65 263 3.0 6.0 0.00 0.00 0.00 99 679.8
20260906135524 64 267 4.0 10.0 0.00 0.00 0.00 99 679.8
20260906134544 64 240 3.0 5.0 0.00 0.00 0.00 99 679.8
20260906133524 63 252 3.0 5.0 0.00 0.00 0.00 99 679.8
20260906132444 62 225 3.0 7.0 0.00 0.00 0.00 99 679.8
20260906131524 62 263 3.0 7.0 0.00 0.00 0.00 99 679.8
20260906130446 61 265 4.0 6.0 0.00 0.00 0.00 99 679.7
20260906125525 61 257 3.0 7.0 0.00 0.00 0.00 99 679.7
20260906124524 60 244 2.0 5.0 0.00 0.00 0.00 99 679.7
20260906123525 60 222 4.0 6.0 0.00 0.00 0.00 99 679.7
20260906122605 59 255 2.0 3.0 0.00 0.00 0.00 99 679.7
20260906121455 59 250 2.0 6.0 0.00 0.00 0.00 99 679.6
20260906120425 58 221 3.0 6.0 0.00 0.00 0.00 99 679.6
20260906115501 58 216 3.0 6.0 0.00 0.00 0.00 99 679.6
20260906114441 58 222 3.0 5.0 0.00 0.00 0.00 99 679.6
20260906113426 57 233 2.0 3.0 0.00 0.00 0.00 99 679.6
20260906112508 57 230 2.0 4.0 0.00 0.00 0.00 99 679.6
20260906111446 57 215 4.0 5.0 0.00 0.00 0.00 99 679.6
20260906110526 57 221 2.0 5.0 0.00 0.00 0.00 99 679.6
20260906105556 57 230 2.0 3.0 0.00 0.00 0.00 99 679.6
20260906104523 57 227 1.0 2.0 0.00 0.00 0.00 99 679.6
20260906103426 57 241 1.0 2.0 0.00 0.00 0.00 99 679.6
20260906102522 57 222 1.0 3.0 0.00 0.00 0.00 99 679.6
20260906101441 57 219 2.0 3.0 0.00 0.00 0.00 99 679.6
20260906100527 57 244 1.0 2.0 0.00 0.00 0.00 99 679.6
20260906095501 57 257 1.0 2.0 0.00 0.00 0.00 99 679.6
20260906094508 58 228 1.0 3.0 0.00 0.00 0.00 99 679.6
20260906093501 58 218 2.0 3.0 0.00 0.00 0.00 99 679.6
20260906092447 58 225 1.0 2.0 0.00 0.00 0.00 99 679.6
20260906091527 58 240 1.0 2.0 0.00 0.00 0.00 99 679.6
20260906090442 58 240 0.0 1.0 0.00 0.00 0.00 99 679.6
20260906085548 58 262 0.0 1.0 0.00 0.00 0.00 99 679.6
20260906084528 58 270 1.0 2.0 0.00 0.00 0.00 99 679.6
20260906083442 58 272 0.0 2.0 0.00 0.00 0.00 99 679.6
20260906082604 58 259 1.0 3.0 0.00 0.00 0.00 99 679.6
20260906081513 58 277 1.0 2.0 0.00 0.00 0.00 99 679.6
20260906080442 58 217 1.0 2.0 0.00 0.00 0.00 99 679.6
20260906075513 59 261 1.0 2.0 0.00 0.00 0.00 99 679.6
20260906074449 59 263 1.0 4.0 0.00 0.00 0.00 99 679.6
20260906073503 59 221 2.0 3.0 0.00 0.00 0.00 99 679.6
20260906072429 59 217 1.0 3.0 0.00 0.00 0.00 99 679.6
20260906071444 59 219 2.0 3.0 0.00 0.00 0.00 99 679.7
20260906070459 59 226 2.0 3.0 0.00 0.00 0.00 99 679.7
20260906065444 59 241 1.0 2.0 0.00 0.00 0.00 99 679.7
20260906064429 59 218 2.0 3.0 0.00 0.00 0.00 99 679.7
20260906063506 60 230 1.0 2.0 0.00 0.00 0.00 99 679.7
20260906062505 60 228 1.0 2.0 0.00 0.00 0.00 99 679.7
20260906061544 60 220 1.0 2.0 0.00 0.00 0.00 99 679.7
20260906060644 60 226 1.0 3.0 0.00 0.00 0.00 99 679.7
20260906055430 60 216 2.0 3.0 0.00 0.00 0.00 99 679.7
20260906054445 60 235 0.0 1.0 0.00 0.00 0.00 99 679.7
20260906053515 60 220 2.0 3.0 0.00 0.00 0.00 99 679.7
20260906052445 60 212 2.0 3.0 0.00 0.00 0.00 99 679.7
20260906051506 60 215 2.0 3.0 0.00 0.00 0.00 99 679.7
20260906050448 61 263 2.0 4.0 0.00 0.00 0.00 99 679.7
20260906045625 61 216 2.0 4.0 0.00 0.00 0.00 99 679.7
20260906044506 61 215 2.0 2.0 0.00 0.00 0.00 99 679.7
20260906043431 61 259 1.0 2.0 0.00 0.00 0.00 99 679.8
20260906042753 61 263 1.0 2.0 0.00 0.00 0.00 99 679.8
20260906041431 62 246 2.0 4.0 0.00 0.00 0.00 99 679.8
20260906040446 62 252 2.0 3.0 0.00 0.00 0.00 99 679.8
20260906035452 62 219 4.0 5.0 0.00 0.00 0.00 99 679.8
20260906034517 62 215 4.0 6.0 0.00 0.00 0.00 99 679.8
20260906033508 62 227 2.0 4.0 0.00 0.00 0.00 99 679.8
20260906032537 62 221 4.0 7.0 0.00 0.00 0.00 99 679.8
20260906031432 63 212 3.0 5.0 0.00 0.00 0.00 99 679.8
20260906030522 63 221 4.0 6.0 0.00 0.00 0.00 99 679.8
20260906025509 63 222 3.0 6.0 0.00 0.00 0.00 99 679.8
20260906024538 63 219 4.0 7.0 0.00 0.00 0.00 99 679.8
20260906023509 63 194 2.0 3.0 0.00 0.00 0.00 99 679.8
20260906022523 63 177 2.0 3.0 0.00 0.00 0.00 99 679.8
20260906021432 63 253 0.0 1.0 0.00 0.00 0.00 99 679.8
20260906020510 64 159 1.0 2.0 0.00 0.00 0.00 99 679.8
20260906015610 64 163 1.0 2.0 0.00 0.00 0.00 99 679.8
20260906014524 64 150 1.0 3.0 0.00 0.00 0.00 99 679.8
20260906013504 64 152 1.0 2.0 0.00 0.00 0.00 99 679.8
20260906012434 65 159 2.0 2.0 0.00 0.00 0.00 99 679.8
20260906011615 65 152 2.0 4.0 0.00 0.00 0.00 99 679.9
20260906010538 65 164 1.0 2.0 0.00 0.00 0.00 99 679.9
20260906005549 66 125 2.0 2.0 0.00 0.00 0.00 99 679.9
20260906004634 66 145 2.0 2.0 0.00 0.00 0.00 99 679.9
20260906003539 67 139 1.0 3.0 0.00 0.00 0.00 99 679.9
20260906002634 67 164 1.0 2.0 0.00 0.00 0.00 99 679.9
20260906001529 68 134 2.0 3.0 0.00 0.00 0.00 99 679.9
20260906000505 68 157 2.0 4.0 0.00 0.00 0.00 99 679.9
20260905235704 69 117 2.0 4.0 0.00 0.00 0.00 99 680.0
20260905234511 69 109 2.0 3.0 0.00 0.00 0.00 99 680.0
20260905233512 70 133 2.0 3.0 0.00 0.00 0.00 98 680.0
20260905232511 71 132 2.0 4.0 0.00 0.00 0.00 97 680.0